"datetime","# probes","# resolvers","can_ipv6","can_ipv6_prbs","can_tcp","can_tcp_prbs","can_tcp6","can_tcp6_prbs","does_ecs","does_ecs_prbs","does_flagday","does_flagday_prbs","does_rov4","does_rov4_prbs","does_rov6","does_rov6_prbs","does_qnamemin","doesnt_qnamemin","does_qnamemin_prbs","doesnt_qnamemin_prbs","does_nxdomain","doesnt_nxdomain","does_nxdomain_prbs","doesnt_nxdomain_prbs","has_ta_19036","hasnt_ta_19036","has_ta_19036_prbs","hasnt_ta_19036_prbs","has_ta_20326","hasnt_ta_20326","has_ta_20326_prbs","hasnt_ta_20326_prbs","can_rsamd5","cannot_rsamd5","broken_rsamd5","can_rsamd5_prbs","cannot_rsamd5_prbs","broken_rsamd5_prbs","can_dsa","cannot_dsa","broken_dsa","can_dsa_prbs","cannot_dsa_prbs","broken_dsa_prbs","can_rsasha1","cannot_rsasha1","broken_rsasha1","can_rsasha1_prbs","cannot_rsasha1_prbs","broken_rsasha1_prbs","can_dsansec3","cannot_dsansec3","broken_dsansec3","can_dsansec3_prbs","cannot_dsansec3_prbs","broken_dsansec3_prbs","can_rsansec3","cannot_rsansec3","broken_rsansec3","can_rsansec3_prbs","cannot_rsansec3_prbs","broken_rsansec3_prbs","can_rsasha256","cannot_rsasha256","broken_rsasha256","can_rsasha256_prbs","cannot_rsasha256_prbs","broken_rsasha256_prbs","can_rsasha512","cannot_rsasha512","broken_rsasha512","can_rsasha512_prbs","cannot_rsasha512_prbs","broken_rsasha512_prbs","can_eccgost","cannot_eccgost","broken_eccgost","can_eccgost_prbs","cannot_eccgost_prbs","broken_eccgost_prbs","can_ecdsa256","cannot_ecdsa256","broken_ecdsa256","can_ecdsa256_prbs","cannot_ecdsa256_prbs","broken_ecdsa256_prbs","can_ecdsa384","cannot_ecdsa384","broken_ecdsa384","can_ecdsa384_prbs","cannot_ecdsa384_prbs","broken_ecdsa384_prbs","can_ed25519","cannot_ed25519","broken_ed25519","can_ed25519_prbs","cannot_ed25519_prbs","broken_ed25519_prbs","can_ed448","cannot_ed448","broken_ed448","can_ed448_prbs","cannot_ed448_prbs","broken_ed448_prbs","can_gost","cannot_gost","broken_gost","can_gost_prbs","cannot_gost_prbs","broken_gost_prbs","can_sha384","cannot_sha384","broken_sha384","can_sha384_prbs","cannot_sha384_prbs","broken_sha384_prbs","is_internal","is_forwarding","is_external","is_internal_prbs","is_forwarding_prbs","is_external_prbs"
2017-06-20T23:59:59Z,112,165,145,96,165,112,142,94,1,5,0,0,0,0,0,0,3,162,2,110,0,165,0,112,0,0,0,0,0,0,0,0,130,31,4,85,26,7,158,7,0,107,11,1,161,4,0,110,5,1,157,8,0,106,12,1,162,3,0,110,5,1,161,4,0,110,5,1,161,4,0,110,5,1,127,36,2,83,32,2,162,3,0,110,5,1,162,3,0,110,5,1,0,163,2,0,111,2,0,163,2,0,111,2,129,33,2,88,28,2,165,0,0,112,3,1,103,45,17,73,36,16
2017-06-21T23:59:59Z,114,165,144,97,165,114,141,95,4,7,0,0,0,0,0,0,3,162,2,112,0,165,0,114,0,0,0,0,0,0,0,0,127,34,4,84,29,7,158,7,0,108,12,1,163,2,0,112,5,1,159,6,0,109,11,1,163,2,0,113,4,1,163,2,0,113,4,1,163,2,0,113,4,1,126,37,2,84,33,2,161,4,0,111,6,1,161,4,0,111,6,1,0,163,2,0,113,2,0,163,2,0,113,2,129,34,2,89,29,2,165,0,0,114,3,1,104,45,16,75,36,16
2017-06-22T23:59:59Z,115,167,145,97,167,115,141,94,3,7,0,0,0,0,0,0,3,164,2,113,0,167,0,115,0,0,0,0,0,0,0,0,132,32,3,86,29,6,162,5,0,110,12,0,164,3,0,112,6,0,162,5,0,110,12,0,165,2,0,113,5,0,165,2,0,113,5,0,165,2,0,113,5,0,130,35,2,85,34,1,165,2,0,113,5,0,165,2,0,113,5,0,0,165,2,0,114,1,0,165,2,0,114,1,133,32,2,90,29,1,167,0,0,115,3,0,105,45,17,75,38,16
2017-06-23T23:59:59Z,115,167,146,98,167,115,141,94,2,6,0,0,0,0,0,0,2,165,1,114,0,167,1,115,0,0,0,0,0,0,0,0,134,30,3,89,28,6,162,5,0,111,12,0,163,4,0,112,7,0,161,6,0,110,12,1,165,2,0,114,5,1,165,2,0,114,5,1,165,2,0,114,5,1,131,34,2,87,32,2,163,4,0,112,7,1,163,4,0,112,7,1,0,165,2,0,114,2,0,165,2,0,114,2,135,30,2,92,28,2,167,0,0,115,4,1,106,44,17,77,36,16
2017-06-24T23:59:59Z,109,161,141,93,161,109,138,91,1,5,0,0,0,0,0,0,3,158,2,108,0,161,0,109,0,0,0,0,0,0,0,0,130,28,3,85,24,5,159,2,0,107,8,0,161,0,0,109,3,0,158,3,0,106,9,0,161,0,0,109,3,0,161,0,0,109,3,0,161,0,0,109,3,0,127,32,2,83,29,1,161,0,0,109,3,0,161,0,0,109,3,0,0,159,2,0,108,1,0,159,2,0,108,1,130,29,2,88,25,1,161,0,0,109,3,0,101,42,18,72,34,16
2017-06-25T23:59:59Z,110,164,144,94,164,110,141,92,0,4,0,0,0,0,0,0,2,162,1,109,0,164,0,110,0,0,0,0,0,0,0,0,133,28,3,86,25,5,162,2,0,108,9,0,164,0,0,110,4,0,161,3,0,107,11,0,164,0,0,110,4,0,164,0,0,110,4,0,164,0,0,110,4,0,130,32,2,84,31,1,164,0,0,110,4,0,164,0,0,110,4,0,0,162,2,0,109,1,0,162,2,0,109,1,133,29,2,89,26,1,164,0,0,110,4,0,102,44,18,74,34,16
2017-06-26T23:59:59Z,110,161,141,94,161,110,138,92,1,5,0,0,0,0,0,0,2,159,1,109,0,161,1,110,0,0,0,0,0,0,0,0,129,29,3,85,27,5,159,2,0,108,10,1,160,1,0,109,6,1,160,1,0,109,9,0,161,0,0,110,5,1,161,0,0,110,5,1,161,0,0,110,5,1,129,30,2,86,29,3,161,0,0,110,5,2,161,0,0,110,5,0,0,159,2,0,109,1,0,159,2,0,109,1,130,29,2,89,27,2,161,0,0,110,4,2,101,43,17,73,34,15
2017-06-27T23:59:59Z,113,165,145,97,165,113,142,95,1,5,0,0,0,0,0,0,3,162,2,111,0,165,0,113,0,0,0,0,0,0,0,0,134,28,3,88,28,6,164,1,0,112,10,1,165,0,0,113,6,1,163,2,0,111,11,1,165,0,0,113,6,1,165,0,0,113,6,1,165,0,0,113,6,1,132,31,2,87,32,2,165,0,0,113,6,1,165,0,0,113,6,1,0,163,2,0,112,2,0,163,2,0,112,2,134,29,2,91,29,2,165,0,0,113,6,1,102,45,18,75,35,16
2017-06-28T23:59:59Z,115,166,147,100,166,115,142,97,2,6,0,0,0,0,0,0,4,162,3,113,0,166,0,115,0,0,0,0,0,0,0,0,131,31,4,88,29,7,160,6,0,110,14,1,163,3,0,113,8,1,160,6,0,110,14,1,162,4,0,112,9,1,162,4,0,112,9,1,162,4,0,112,9,1,129,35,2,87,34,2,163,3,0,113,8,1,163,3,0,113,8,1,0,164,2,0,114,2,0,164,2,0,114,2,133,31,2,93,29,3,166,0,0,115,6,2,102,47,17,75,37,16
2017-06-29T23:59:59Z,112,162,142,96,162,112,138,94,0,5,0,0,0,0,0,0,4,158,3,110,0,162,0,112,0,0,0,0,0,0,0,0,131,27,4,88,26,7,158,3,1,109,12,1,161,0,1,112,5,1,157,4,1,108,13,1,162,0,0,112,5,0,162,0,0,112,5,0,162,0,0,112,5,0,128,32,2,85,33,1,161,1,0,111,6,0,161,1,0,111,6,0,0,160,2,0,111,1,0,160,2,0,111,1,132,28,2,91,27,1,162,0,0,112,5,0,101,44,17,74,35,16
2017-06-30T23:59:59Z,115,165,144,98,165,115,139,95,0,5,0,0,0,0,0,0,4,161,3,112,0,165,1,115,0,0,0,0,0,0,0,0,130,30,5,87,29,9,159,6,0,110,15,1,162,3,0,113,8,1,159,6,0,110,15,1,163,2,0,114,7,1,163,2,0,114,7,1,163,2,0,114,7,1,128,34,3,86,35,3,163,2,0,114,7,1,163,2,0,114,7,1,0,162,3,0,113,3,0,162,3,0,113,3,134,28,3,93,28,3,165,0,0,115,6,1,103,45,17,76,36,16
2017-07-01T23:59:59Z,112,158,138,96,158,112,135,94,0,5,0,0,0,0,0,0,3,155,2,110,0,158,0,112,0,0,0,0,0,0,0,0,127,29,2,88,28,6,157,1,0,111,12,0,158,0,0,112,6,0,154,4,0,108,14,0,158,0,0,112,6,0,158,0,0,112,6,0,158,0,0,112,6,0,122,34,2,84,35,1,157,1,0,111,7,0,157,1,0,111,7,0,0,156,2,0,111,1,0,156,2,0,111,1,126,30,2,90,29,1,158,0,0,112,6,0,101,41,16,75,34,16
2017-07-02T23:59:59Z,112,162,142,96,162,112,139,94,0,5,0,0,0,0,0,0,4,158,3,110,0,162,0,112,0,0,0,0,0,0,0,0,129,30,3,86,28,6,159,3,0,109,12,0,161,1,0,111,6,0,159,3,0,109,13,0,162,0,0,112,5,0,162,0,0,112,5,0,162,0,0,112,5,0,127,33,2,85,34,1,161,1,0,111,6,0,161,1,0,111,6,0,0,160,2,0,111,1,0,160,2,0,111,1,130,30,2,90,28,1,162,0,0,112,5,0,103,42,17,75,34,16
2017-07-03T23:59:59Z,116,169,146,98,169,116,143,96,2,6,0,0,0,0,0,0,7,162,5,112,0,169,0,116,0,0,0,0,0,0,0,0,133,29,7,88,28,9,167,2,0,114,12,0,169,0,0,116,6,0,167,2,0,114,12,0,169,0,0,116,6,0,169,0,0,116,6,0,169,0,0,116,6,0,132,32,5,88,33,3,168,1,0,115,7,0,168,1,0,115,7,0,0,164,5,0,113,3,0,164,5,0,113,3,134,30,5,92,29,3,169,0,0,116,6,0,109,43,17,78,35,16
2017-07-04T23:59:59Z,116,169,147,99,169,116,142,96,0,5,0,0,0,0,0,0,5,164,4,113,0,169,0,116,0,0,0,0,0,0,0,0,133,31,5,88,30,8,163,6,0,111,15,0,166,3,0,114,8,0,163,6,0,111,15,0,166,3,0,114,8,0,166,3,0,114,8,0,166,3,0,114,8,0,130,36,3,86,36,2,168,1,0,115,7,0,168,1,0,115,7,0,0,166,3,0,114,2,0,166,3,0,114,2,134,32,3,92,30,2,169,0,0,116,6,0,108,45,16,78,35,16
2017-07-05T23:59:59Z,115,166,145,99,166,115,142,97,0,6,0,0,0,0,0,0,3,163,2,113,0,166,0,115,0,0,0,0,0,0,0,0,131,31,4,87,30,8,162,4,0,111,15,0,165,1,0,114,7,0,162,4,0,111,15,0,166,0,0,115,6,0,166,0,0,115,6,0,166,0,0,115,6,0,129,35,2,86,36,1,165,1,0,114,7,0,165,1,0,114,7,0,0,164,2,0,114,1,0,164,2,0,114,1,132,32,2,92,31,1,166,0,0,115,6,0,108,42,16,78,34,17
2017-07-06T23:59:59Z,117,170,147,100,170,117,144,98,1,7,0,0,0,0,0,0,5,165,3,114,0,168,0,116,0,0,0,0,0,0,0,0,131,32,7,87,31,10,164,5,1,112,16,1,167,2,1,115,8,1,164,5,1,112,16,1,168,2,0,115,8,0,168,2,0,115,8,0,168,2,0,115,8,0,130,36,4,86,37,2,168,2,0,115,8,0,168,2,0,115,8,0,0,166,4,0,115,2,0,166,4,0,115,2,132,33,5,92,32,3,170,0,0,117,7,0,108,44,18,79,35,17
2017-07-07T23:59:59Z,115,166,143,98,166,115,140,96,1,7,0,0,0,0,0,0,6,160,4,112,0,166,0,115,0,0,0,0,0,0,0,0,131,30,5,88,29,8,164,2,0,113,13,0,166,0,0,115,6,0,162,4,0,111,15,0,166,0,0,115,6,0,166,0,0,115,6,0,166,0,0,115,6,0,127,35,4,85,36,2,166,0,0,115,6,0,166,0,0,115,6,0,0,162,4,0,113,2,0,162,4,0,113,2,131,31,4,92,30,2,166,0,0,115,6,0,107,42,17,78,34,17
2017-07-08T23:59:59Z,118,171,147,101,171,118,142,98,2,7,0,0,0,0,0,0,5,166,3,115,0,171,0,118,0,0,0,0,0,0,0,0,133,33,5,89,32,9,164,7,0,114,16,0,168,3,0,116,8,0,165,6,0,115,16,0,169,2,0,117,7,0,169,2,0,117,7,0,169,2,0,117,7,0,130,37,4,89,37,2,170,1,0,117,7,0,170,1,0,117,7,0,0,167,4,0,116,2,0,167,4,0,116,2,134,33,4,95,32,2,171,0,0,118,6,0,108,45,18,78,36,19
2017-07-09T23:59:59Z,116,171,149,100,171,116,146,98,1,7,0,0,0,0,0,0,4,167,3,114,0,169,0,115,0,0,0,0,0,0,0,0,134,33,4,88,32,8,166,5,0,113,15,0,170,1,0,115,7,0,165,6,0,112,16,0,171,0,0,116,6,0,171,0,0,116,6,0,171,0,0,116,6,0,130,39,2,86,38,1,171,0,0,116,6,0,171,0,0,116,6,0,0,169,2,0,115,1,0,169,2,0,115,1,136,33,2,94,32,1,171,0,0,116,6,0,110,42,19,78,34,19
2017-07-10T23:59:59Z,115,167,146,99,167,115,143,97,0,7,0,0,0,0,0,0,4,163,3,113,0,167,0,115,0,0,0,0,0,0,0,0,134,28,5,89,28,9,162,5,0,111,15,0,167,0,0,115,6,0,161,6,0,110,16,0,165,2,0,114,7,0,165,2,0,114,7,0,165,2,0,114,7,0,130,35,2,86,36,1,166,1,0,114,7,0,166,1,0,114,7,0,0,165,2,0,114,1,0,165,2,0,114,1,133,32,2,92,31,1,167,0,0,115,6,0,106,44,17,77,35,18
2017-07-11T23:59:59Z,114,167,146,98,167,114,143,96,2,8,0,0,0,0,0,0,3,164,2,112,0,167,0,114,0,0,0,0,0,0,0,0,133,30,4,87,29,9,163,4,0,111,14,1,165,2,0,113,7,1,161,6,0,109,16,1,165,2,0,113,7,1,165,2,0,113,7,1,165,2,0,113,7,1,129,36,2,85,37,2,167,0,0,114,6,1,167,0,0,114,6,1,0,165,2,0,113,2,0,165,2,0,113,2,133,32,2,92,31,2,167,0,0,114,6,1,104,44,19,75,35,19
2017-07-12T23:59:59Z,115,168,147,99,168,115,144,97,2,8,0,0,0,0,0,0,2,166,1,114,0,168,0,115,0,0,0,0,0,0,0,0,135,30,3,88,30,8,162,6,0,110,16,0,165,3,0,113,8,0,161,7,0,109,17,0,165,3,0,113,8,0,165,3,0,113,8,0,165,3,0,113,8,0,129,37,2,85,38,1,165,3,0,113,8,0,165,3,0,113,8,0,0,166,2,0,114,1,0,166,2,0,114,1,133,33,2,92,32,1,168,0,0,115,6,0,106,43,19,76,35,19
2017-07-13T23:59:59Z,117,175,152,100,175,117,147,97,1,8,0,0,0,0,0,0,5,170,3,114,0,173,0,116,0,0,0,0,0,0,0,0,135,31,9,86,30,11,168,7,0,111,17,0,175,0,0,117,6,0,169,6,0,112,16,0,173,2,0,116,7,0,173,2,0,116,7,0,173,2,0,116,7,0,133,38,4,86,38,2,175,0,0,117,6,0,175,0,0,117,6,0,0,171,4,0,115,2,0,171,4,0,115,2,139,32,4,94,31,2,175,0,0,117,6,0,110,45,20,79,34,19
2017-07-14T23:59:59Z,114,169,146,97,169,114,144,96,1,8,0,0,0,0,0,0,5,164,3,111,0,169,0,114,0,0,0,0,0,0,0,0,133,30,6,86,29,9,164,5,0,110,15,0,167,2,0,113,7,0,163,6,0,109,16,0,169,0,0,114,6,0,169,0,0,114,6,0,169,0,0,114,6,0,130,35,4,85,36,2,167,2,0,113,7,0,167,2,0,113,7,0,0,165,4,0,112,2,0,165,4,0,112,2,134,31,4,92,30,2,169,0,0,114,6,0,106,44,19,76,34,19
2017-07-15T23:59:59Z,116,173,152,100,173,116,149,98,1,8,0,0,0,0,0,0,3,170,2,114,0,173,0,116,0,0,0,0,0,0,0,0,137,31,5,88,29,9,168,5,0,112,14,0,171,2,0,115,6,0,167,6,0,111,15,0,171,2,0,115,6,0,171,2,0,115,6,0,171,2,0,115,6,0,133,38,2,86,37,1,171,2,0,115,6,0,171,2,0,115,6,0,0,171,2,0,115,1,0,171,2,0,115,1,137,34,2,93,31,1,173,0,0,116,5,0,111,43,19,78,34,19
2017-07-16T23:59:59Z,114,166,145,98,166,114,142,96,1,7,0,0,0,0,0,0,3,163,2,112,0,166,1,114,0,0,0,0,0,0,0,0,134,29,3,88,29,8,163,3,0,111,14,0,166,0,0,114,6,0,162,4,0,110,15,0,166,0,0,114,6,0,166,0,0,114,6,0,166,0,0,114,6,0,130,34,2,86,36,1,166,0,0,114,6,0,166,0,0,114,6,0,0,164,2,0,113,1,0,164,2,0,113,1,134,30,2,93,30,1,166,0,0,114,6,0,109,41,16,78,32,18
2017-07-17T23:59:59Z,115,172,154,101,172,115,151,99,2,8,0,0,0,0,0,0,1,171,1,114,0,172,0,115,0,0,0,0,0,0,0,0,137,33,2,87,30,8,165,7,0,109,16,0,170,2,0,114,6,0,165,7,0,109,16,0,170,2,0,114,6,0,170,2,0,114,6,0,170,2,0,114,6,0,134,38,0,86,37,0,169,3,0,113,7,0,169,3,0,113,7,0,0,172,0,0,115,0,0,172,0,0,115,0,141,31,0,95,29,0,172,0,0,115,5,0,106,46,20,76,35,19
2017-07-18T23:59:59Z,115,170,152,101,170,115,149,99,0,7,0,0,0,0,0,0,2,168,2,114,0,170,0,115,0,0,0,0,0,0,0,0,138,30,2,89,29,7,166,4,0,111,15,0,169,1,0,114,7,0,166,4,0,111,15,0,170,0,0,115,6,0,170,0,0,115,6,0,170,0,0,115,6,0,135,35,0,88,36,0,169,1,0,114,7,0,169,1,0,114,7,0,0,170,0,0,115,0,0,170,0,0,115,0,139,31,0,95,30,0,170,0,0,115,6,0,108,43,19,77,34,19
2017-07-19T23:59:59Z,116,172,150,100,172,116,147,98,2,7,0,0,0,0,0,0,5,167,3,113,0,172,0,116,0,0,0,0,0,0,0,0,136,30,6,88,29,9,167,5,0,111,15,0,171,1,0,115,7,0,168,4,0,112,14,0,172,0,0,116,6,0,172,0,0,116,6,0,172,0,0,116,6,0,134,34,4,88,35,2,171,1,0,115,7,0,171,1,0,115,7,0,0,168,4,0,114,2,0,168,4,0,114,2,138,30,4,94,29,2,172,0,0,116,6,0,109,43,20,78,34,18
2017-07-20T23:59:59Z,118,175,153,102,175,118,149,99,2,7,0,0,0,0,0,0,5,170,3,115,0,175,0,118,0,0,0,0,0,0,0,0,140,29,6,90,29,8,170,5,0,113,15,0,173,2,0,116,8,0,171,4,0,114,15,0,174,1,0,117,7,0,173,2,0,116,8,0,173,2,0,116,8,0,140,31,4,92,34,2,173,2,0,116,8,0,173,2,0,116,8,0,0,171,4,0,116,2,0,171,4,0,116,2,142,29,4,96,29,2,175,0,0,118,6,0,110,46,19,78,36,18
2017-07-21T23:59:59Z,113,171,152,99,171,113,149,97,1,6,0,0,0,0,0,0,1,170,1,112,0,171,0,113,0,0,0,0,0,0,0,0,141,29,1,89,27,6,166,5,0,109,13,0,169,2,0,112,6,0,165,6,0,108,14,0,169,2,0,112,6,0,169,2,0,112,6,0,169,2,0,112,6,0,137,34,0,87,34,0,169,2,0,112,6,0,169,2,0,112,6,0,0,171,0,0,113,0,0,171,0,0,113,0,141,30,0,93,28,0,171,0,0,113,5,0,103,46,22,73,36,18
2017-07-22T23:59:59Z,115,171,149,99,171,115,146,97,2,7,0,0,0,0,0,0,4,167,3,113,0,171,0,115,0,0,0,0,0,0,0,0,137,30,4,87,29,7,166,5,0,111,13,0,168,3,0,113,7,0,167,4,0,112,12,0,171,0,0,115,5,0,171,0,0,115,5,0,169,2,0,114,6,0,135,34,2,88,34,1,169,2,0,114,6,0,169,2,0,114,6,0,0,169,2,0,114,1,0,169,2,0,114,1,139,30,2,93,29,1,171,0,0,115,5,0,105,47,19,75,36,18
2017-07-23T23:59:59Z,120,177,155,104,177,120,149,100,2,7,0,0,0,0,0,0,3,174,2,118,0,177,0,120,0,0,0,0,0,0,0,0,141,33,3,91,31,7,169,8,0,113,16,0,172,5,0,116,9,0,169,8,0,113,16,0,173,4,0,117,8,0,173,4,0,117,8,0,172,5,0,116,9,0,138,37,2,90,37,1,172,5,0,116,9,0,172,5,0,116,9,0,0,175,2,0,119,1,0,175,2,0,119,1,144,31,2,97,30,1,177,0,0,120,5,0,109,49,19,78,38,18
2017-07-24T23:59:59Z,117,175,153,101,175,117,150,99,3,7,0,0,0,0,0,0,3,172,2,115,0,175,0,117,0,0,0,0,0,0,0,0,141,31,3,90,29,7,169,6,0,112,14,0,172,3,0,115,7,0,169,6,0,112,14,0,173,2,0,116,6,0,173,2,0,116,6,0,173,2,0,116,6,0,138,35,2,89,35,1,172,3,0,115,9,0,174,1,0,116,6,0,0,173,2,0,116,1,0,173,2,0,116,1,141,32,2,94,30,1,175,0,0,117,5,0,108,47,20,77,36,18
2017-07-25T23:59:59Z,117,174,152,101,174,117,149,99,6,10,0,0,0,0,0,0,5,169,3,115,0,174,0,117,0,0,0,0,0,0,0,0,136,32,6,88,31,10,167,7,0,111,16,1,172,2,0,116,8,1,168,6,0,112,15,1,172,2,0,116,8,1,171,3,0,115,9,1,171,3,0,115,9,1,134,37,3,88,37,2,171,3,0,115,9,1,171,3,0,115,9,1,0,171,3,0,116,2,0,171,3,0,116,2,138,33,3,94,32,2,174,0,0,117,7,1,107,47,20,77,36,18
2017-07-26T23:59:59Z,116,172,149,99,172,116,146,97,1,6,0,0,0,0,0,0,5,167,3,113,0,172,0,116,0,0,0,0,0,0,0,0,136,31,5,88,30,7,169,3,0,113,13,0,171,1,0,115,7,0,168,4,0,112,14,0,171,1,0,115,7,0,171,1,0,115,7,0,171,1,0,115,7,0,133,35,4,87,36,2,172,0,0,116,6,0,172,0,0,116,6,0,0,168,4,0,114,2,0,168,4,0,114,2,137,31,4,93,30,2,172,0,0,116,6,0,108,45,19,77,35,17
2017-07-27T23:59:59Z,115,170,147,98,170,115,144,96,0,5,0,0,0,0,0,0,5,165,3,112,0,170,0,115,0,0,0,0,0,0,0,0,134,29,7,87,28,8,166,4,0,112,12,0,170,0,0,115,5,0,166,4,0,112,13,0,168,2,0,114,6,0,168,2,0,114,6,0,168,2,0,114,6,0,132,34,4,87,35,2,168,2,0,114,6,0,168,2,0,114,6,0,0,166,4,0,113,2,0,166,4,0,113,2,136,30,4,92,29,2,170,0,0,115,5,0,104,47,19,75,36,17
2017-07-28T23:59:59Z,113,168,147,97,168,113,144,95,0,5,0,0,0,0,0,0,4,164,3,111,0,168,0,113,0,0,0,0,0,0,0,0,136,28,4,87,28,7,166,2,0,111,12,0,168,0,0,113,6,0,166,2,0,111,12,0,168,0,0,113,6,0,168,0,0,113,6,0,168,0,0,113,6,0,135,31,2,88,33,1,168,0,0,113,6,0,168,0,0,113,6,0,0,166,2,0,112,1,0,166,2,0,112,1,136,30,2,91,30,1,168,0,0,113,6,0,102,46,20,74,35,17
2017-07-29T23:59:59Z,116,171,152,102,170,116,148,99,1,7,0,0,0,0,0,0,3,168,2,114,0,170,0,116,0,0,0,0,0,0,0,0,138,29,4,90,29,8,167,3,1,113,13,1,169,1,1,115,6,1,167,3,1,113,13,1,169,1,1,115,6,1,169,1,1,115,6,1,169,1,1,115,6,1,134,34,3,89,34,2,168,2,1,114,7,1,168,2,1,114,7,1,0,168,3,0,115,2,0,168,3,0,115,2,137,32,2,94,30,1,171,0,0,116,5,0,107,45,19,77,35,18
2017-07-30T23:59:59Z,115,170,150,100,170,115,147,98,3,9,0,0,0,0,0,0,4,166,3,113,0,169,0,114,0,0,0,0,0,0,0,0,137,29,4,88,29,8,168,2,0,113,13,0,169,1,0,114,7,0,167,3,0,112,14,0,170,0,0,115,6,0,170,0,0,115,6,0,170,0,0,115,6,0,135,33,2,88,35,1,169,1,0,114,7,0,169,1,0,114,7,0,0,168,2,0,114,1,0,168,2,0,114,1,138,30,2,94,30,1,170,0,0,115,6,0,105,45,20,76,35,18
2017-07-31T23:59:59Z,116,175,155,101,175,116,151,98,0,6,0,0,0,0,0,0,3,172,2,114,0,175,0,116,0,0,0,0,0,0,0,0,139,32,3,89,29,7,172,2,0,114,12,0,173,1,0,115,6,0,172,2,0,114,12,0,174,1,0,115,6,0,173,1,0,115,6,0,173,1,0,115,6,0,139,34,2,90,33,1,173,1,0,115,6,0,173,1,0,115,6,0,0,172,2,0,115,1,0,172,2,0,115,1,140,33,2,94,30,1,175,0,0,116,5,0,108,47,20,76,36,18
2017-08-01T23:59:59Z,117,174,152,101,173,117,148,98,0,6,0,0,0,0,0,0,5,169,3,114,0,174,0,117,0,0,0,0,0,0,0,0,139,30,5,89,29,8,169,5,0,112,15,0,172,2,0,115,7,0,168,6,0,111,16,0,172,2,0,115,7,0,172,2,0,115,7,0,172,2,0,115,7,0,136,34,4,88,35,2,172,2,0,115,7,0,172,2,0,115,7,0,0,170,4,0,115,2,0,170,4,0,115,2,138,32,4,93,31,2,174,0,0,117,5,0,110,46,18,78,35,17
2017-08-02T23:59:59Z,119,179,157,103,179,119,153,100,0,6,0,0,0,0,0,0,6,173,4,116,0,177,0,118,0,0,0,0,0,0,0,0,141,32,6,89,31,9,174,5,0,114,16,0,177,2,0,117,8,0,175,4,0,115,15,0,178,1,0,118,7,0,177,2,0,117,8,0,177,2,0,117,8,0,140,35,4,90,36,2,177,2,0,117,8,0,177,2,0,117,8,0,0,175,4,0,117,2,0,175,4,0,117,2,143,32,4,96,31,2,179,0,0,119,6,0,112,47,20,79,36,18
2017-08-03T23:59:59Z,117,175,157,102,175,117,154,100,0,5,0,0,0,0,0,0,3,172,2,115,0,175,0,117,0,0,0,0,0,0,0,0,142,30,3,90,30,6,171,4,0,113,14,0,172,2,0,114,8,0,171,3,0,113,13,0,173,1,0,115,7,0,172,2,0,114,8,0,172,2,0,114,8,0,141,32,2,91,34,1,172,2,0,114,8,0,172,2,0,114,8,0,0,173,2,0,116,1,0,173,2,0,116,1,143,30,2,95,30,1,175,0,0,117,6,0,109,46,20,78,35,17
2017-08-04T23:59:59Z,117,174,158,103,174,117,155,101,1,7,0,0,0,0,0,0,1,173,1,116,0,174,0,117,0,0,0,0,0,0,0,0,146,26,2,94,27,7,169,5,0,113,16,0,171,2,0,115,7,0,167,6,0,111,16,0,171,2,0,115,7,0,171,2,0,115,7,0,171,2,0,115,7,0,142,32,0,92,35,0,171,3,0,115,8,0,170,3,0,114,8,0,0,174,0,0,117,0,0,174,0,0,117,0,146,28,0,97,29,0,174,0,0,117,6,0,106,49,19,77,36,18
2017-08-05T23:59:59Z,115,172,156,101,172,115,153,99,2,7,0,0,0,0,0,0,1,171,1,114,0,172,0,115,0,0,0,0,0,0,0,0,142,29,1,90,28,5,167,5,0,111,13,0,169,3,0,113,7,0,166,5,0,110,13,0,169,2,0,113,6,0,168,3,0,112,7,0,168,3,0,112,7,0,140,32,0,90,33,0,169,3,0,113,7,0,167,3,1,112,7,1,0,171,1,0,115,1,0,171,1,0,115,1,143,29,0,95,28,0,172,0,0,115,5,0,107,46,19,76,35,17
2017-08-06T23:59:58Z,120,181,163,105,181,120,160,103,0,5,0,0,0,0,0,0,3,178,2,118,0,181,0,120,0,0,0,0,0,0,0,0,147,29,5,93,29,7,175,6,0,115,15,0,179,2,0,119,8,0,173,7,0,113,16,0,177,3,0,117,8,0,178,2,0,118,7,0,178,2,0,118,7,0,143,36,2,91,37,1,179,2,0,119,7,0,178,2,0,118,7,0,0,179,2,0,119,1,0,179,2,0,119,1,147,32,2,97,31,1,181,0,0,120,6,0,113,48,20,80,36,17
2017-08-07T23:59:59Z,120,180,162,105,180,120,159,103,2,7,0,0,0,0,0,0,3,177,2,118,0,178,0,119,0,0,0,0,0,0,0,0,146,31,3,93,30,6,174,6,0,115,15,0,177,3,0,118,8,0,174,5,0,115,14,0,179,0,0,119,6,0,178,1,0,118,7,0,178,1,0,118,7,0,144,34,2,93,35,1,179,1,0,119,7,0,179,1,0,119,7,0,0,178,2,0,119,1,0,178,2,0,119,1,146,32,2,97,31,1,180,0,0,120,6,0,113,48,19,80,36,17
2017-08-08T23:59:59Z,119,180,160,103,180,119,157,101,1,6,0,0,0,0,0,0,5,175,3,116,0,180,0,119,0,0,0,0,0,0,0,0,147,28,5,93,28,7,177,3,0,116,13,0,180,0,0,119,6,0,176,3,0,115,13,0,179,0,0,118,6,0,179,0,0,118,6,0,179,0,0,118,6,0,144,32,4,92,34,2,180,0,0,119,6,0,180,0,0,119,6,0,0,176,4,0,117,2,0,176,4,0,117,2,147,29,4,97,29,2,180,0,0,119,6,0,114,47,19,80,35,17
2017-08-09T23:59:59Z,117,178,158,101,178,117,155,99,1,6,0,0,0,0,0,0,5,173,3,114,0,178,0,117,0,0,0,0,0,0,0,0,144,29,5,91,27,7,173,5,0,113,13,0,176,2,0,116,6,0,172,5,0,112,13,0,175,2,0,115,6,0,175,2,0,115,6,0,175,2,0,115,6,0,141,33,4,90,33,2,178,0,0,117,5,0,178,0,0,117,5,0,0,174,4,0,115,2,0,174,4,0,115,2,144,30,4,95,28,2,178,0,0,117,5,0,114,44,20,79,34,17
2017-08-10T23:59:59Z,115,175,157,100,175,115,154,98,1,6,0,0,0,0,0,0,3,172,2,113,0,175,0,115,0,0,0,0,0,0,0,0,143,29,3,90,27,6,173,2,0,113,11,0,175,0,0,115,5,0,172,2,0,112,11,0,174,0,0,114,5,0,174,0,0,114,5,0,174,0,0,114,5,0,141,32,2,90,32,1,175,0,0,115,5,0,175,0,0,115,5,0,0,173,2,0,114,1,0,173,2,0,114,1,143,30,2,94,28,1,175,0,0,115,5,0,112,44,19,77,34,17
2017-08-11T23:59:59Z,114,172,153,99,172,114,151,98,0,6,0,0,0,0,0,0,3,169,2,112,0,172,1,114,0,0,0,0,0,0,0,0,141,28,3,89,27,7,170,2,0,112,12,0,171,1,0,113,7,0,170,1,0,112,11,0,171,0,0,113,6,0,171,0,0,113,6,0,171,0,0,113,6,0,141,29,2,91,30,1,171,1,0,113,7,0,171,1,0,113,7,0,0,170,2,0,113,1,0,170,2,0,113,1,142,28,2,95,27,1,172,0,0,114,6,0,108,45,19,75,35,18
2017-08-12T23:59:59Z,114,173,155,99,173,114,153,98,0,5,0,0,0,0,0,0,3,170,2,112,0,173,0,114,0,0,0,0,0,0,0,0,141,28,4,89,26,7,170,3,0,111,12,0,173,0,0,114,5,0,168,4,0,109,13,0,172,0,0,113,5,0,172,0,0,113,5,0,172,0,0,113,5,0,138,33,2,88,33,1,172,1,0,113,6,0,172,1,0,113,6,0,0,171,2,0,113,1,0,171,2,0,113,1,142,29,2,94,27,1,173,0,0,114,5,0,110,44,19,76,34,17
2017-08-13T23:59:59Z,117,177,156,100,177,117,155,99,1,6,0,0,0,0,0,0,5,172,3,114,0,175,0,116,0,0,0,0,0,0,0,0,143,28,6,90,27,9,172,5,0,112,14,1,176,1,0,116,6,1,172,4,0,112,13,1,175,1,0,115,6,1,175,1,0,115,6,1,175,1,0,115,6,1,141,32,4,90,33,3,176,1,0,116,6,1,176,1,0,116,6,1,0,173,4,0,115,3,0,173,4,0,115,3,143,30,4,94,29,3,177,0,0,117,5,1,114,45,18,79,34,16
2017-08-14T23:59:59Z,121,185,161,103,185,121,159,101,1,7,0,0,0,0,0,0,6,179,4,118,0,185,0,121,0,0,0,0,0,0,0,0,147,32,6,92,30,9,181,4,0,118,14,1,183,2,0,120,7,1,180,4,0,117,14,1,182,2,0,119,7,1,182,2,0,119,7,1,182,2,0,119,7,1,146,35,4,93,35,3,182,3,0,119,8,1,182,3,0,119,8,1,0,181,4,0,119,3,0,181,4,0,119,3,148,33,4,98,31,3,185,0,0,121,6,1,120,45,20,83,34,18
2017-08-15T23:59:59Z,121,184,160,103,183,121,156,101,3,8,0,0,0,0,0,0,6,178,4,118,0,184,0,121,0,0,0,0,0,0,0,0,143,33,8,89,32,11,179,5,0,118,15,1,183,1,0,121,7,1,178,5,0,117,15,1,182,1,0,120,7,1,182,1,0,120,7,1,182,1,0,120,7,1,142,38,4,90,38,3,183,1,0,121,7,1,183,1,0,121,7,1,0,180,4,0,119,3,0,180,4,0,119,3,146,34,4,96,33,3,184,0,0,121,6,1,118,46,20,82,35,18
2017-08-16T23:59:59Z,121,180,160,105,180,121,155,101,2,9,0,0,0,0,0,0,1,179,1,120,0,180,0,121,0,0,0,0,0,0,0,0,146,34,0,93,33,7,178,2,0,119,14,1,178,2,0,120,8,1,174,5,0,116,16,1,177,2,0,119,8,1,177,2,0,119,8,1,177,2,0,119,8,1,143,37,0,92,38,1,178,2,0,120,8,1,178,2,0,120,8,1,0,180,0,0,121,1,0,180,0,0,121,1,146,34,0,98,33,1,180,0,0,121,6,1,116,45,19,82,35,18
2017-08-17T23:59:59Z,121,183,161,104,183,121,157,101,1,8,0,0,0,0,0,0,4,179,3,119,0,183,0,121,0,0,0,0,0,0,0,0,146,34,3,91,32,8,180,3,0,118,13,1,182,1,0,120,6,1,179,3,0,117,13,1,182,0,0,120,5,1,182,0,0,120,5,1,182,0,0,120,5,1,144,37,2,91,37,2,182,1,0,120,6,1,182,1,0,120,6,1,0,181,2,0,120,2,0,181,2,0,120,2,147,34,2,97,32,2,183,0,0,121,5,1,119,45,19,83,34,18
2017-08-18T23:59:59Z,119,176,154,102,176,119,150,99,1,7,0,0,0,0,0,0,4,172,3,117,0,176,0,119,0,0,0,0,0,0,0,0,137,34,5,87,32,9,171,5,0,115,15,1,174,2,0,118,7,1,171,4,0,115,14,1,174,1,0,118,6,1,173,2,0,117,7,1,173,2,0,117,7,1,137,37,2,89,37,2,174,2,0,118,7,1,174,2,0,118,7,1,0,174,2,0,118,2,0,174,2,0,118,2,139,35,2,94,33,2,176,0,0,119,5,1,118,41,17,83,32,17
2017-08-19T23:59:59Z,119,178,154,101,178,119,150,98,1,6,0,0,0,0,0,0,5,173,3,116,0,175,0,118,0,0,0,0,0,0,0,0,138,34,6,87,33,9,175,2,1,116,12,2,177,1,0,118,7,1,174,2,1,115,12,2,177,0,0,118,6,1,177,0,0,118,6,1,177,0,0,118,6,1,137,36,5,88,36,4,177,1,0,118,7,1,177,1,0,118,7,1,0,173,5,0,116,4,0,173,5,0,116,4,138,35,5,92,34,4,178,0,0,119,6,1,119,41,18,84,31,16